Time,TemperatureF,DewpointF,PressureIn,WindDirection,WindDirectionDegrees,WindSpeedMPH,WindSpeedGustMPH,Humidity,HourlyPrecipIn,Conditions,Clouds,dailyrainin,SoftwareType,DateUTC
2013-03-03 00:00:00,40.3,32.3,29.81,North,355,7.0,10.0,73,0.00,,---,0.00,VWS V14.01,2013-03-03 05:00:00,
2013-03-03 00:05:00,40.3,32.3,29.81,North,5,5.0,8.0,73,0.00,,---,0.00,VWS V14.01,2013-03-03 05:05:00,
2013-03-03 00:10:00,40.2,31.9,29.81,North,11,7.0,13.0,72,0.00,,---,0.00,VWS V14.01,2013-03-03 05:10:00,
2013-03-03 00:15:00,40.2,31.6,29.81,North,355,9.0,11.0,71,0.00,,---,0.00,VWS V14.01,2013-03-03 05:15:00,
2013-03-03 00:20:00,40.2,31.2,29.81,North,360,7.0,9.0,70,0.00,,---,0.00,VWS V14.01,2013-03-03 05:20:00,
2013-03-03 00:25:00,40.2,30.9,29.81,North,9,4.0,10.0,69,0.00,,---,0.00,VWS V14.01,2013-03-03 05:25:00,
2013-03-03 00:30:00,40.3,31.0,29.81,North,11,6.0,10.0,69,0.00,,---,0.00,VWS V14.01,2013-03-03 05:30:00,
2013-03-03 00:35:00,40.2,30.5,29.81,North,355,4.0,11.0,68,0.00,,---,0.00,VWS V14.01,2013-03-03 05:35:00,
2013-03-03 00:40:00,40.2,30.9,29.81,North,351,6.0,10.0,69,0.00,,---,0.00,VWS V14.01,2013-03-03 05:40:00,
2013-03-03 00:45:00,40.1,30.8,29.81,North,5,4.0,9.0,69,0.00,,---,0.00,VWS V14.01,2013-03-03 05:45:00,
2013-03-03 00:50:00,40.0,30.7,29.81,North,5,4.0,9.0,69,0.00,,---,0.00,VWS V14.01,2013-03-03 05:50:00,
2013-03-03 00:55:00,40.0,30.7,29.81,North,5,4.0,8.0,69,0.00,,---,0.00,VWS V14.01,2013-03-03 05:55:00,
2013-03-03 01:00:00,39.9,30.6,29.81,North,5,4.0,7.0,69,0.00,,---,0.00,VWS V14.01,2013-03-03 06:00:00,
2013-03-03 01:05:00,39.9,30.2,29.81,North,5,4.0,7.0,68,0.00,,---,0.00,VWS V14.01,2013-03-03 06:05:00,
2013-03-03 01:10:00,39.9,30.6,29.81,North,355,6.0,12.0,69,0.00,,---,0.00,VWS V14.01,2013-03-03 06:10:00,
2013-03-03 01:15:00,39.9,30.2,29.81,North,355,7.0,11.0,68,0.00,,---,0.00,VWS V14.01,2013-03-03 06:15:00,
2013-03-03 01:20:00,39.8,30.5,29.81,North,355,3.0,12.0,69,0.00,,---,0.00,VWS V14.01,2013-03-03 06:20:00,
2013-03-03 01:25:00,39.8,30.5,29.81,North,355,5.0,10.0,69,0.00,,---,0.00,VWS V14.01,2013-03-03 06:25:00,
2013-03-03 01:30:00,39.6,30.3,29.81,North,360,8.0,9.0,69,0.00,,---,0.00,VWS V14.01,2013-03-03 06:30:00,
2013-03-03 01:35:00,39.6,30.3,29.81,North,355,10.0,10.0,69,0.00,,---,0.00,VWS V14.01,2013-03-03 06:35:00,
2013-03-03 01:40:00,39.5,30.2,29.81,North,355,5.0,10.0,69,0.00,,---,0.00,VWS V14.01,2013-03-03 06:40:00,
2013-03-03 01:45:00,39.4,30.1,29.81,North,355,8.0,11.0,69,0.00,,---,0.00,VWS V14.01,2013-03-03 06:45:00,
2013-03-03 01:50:00,39.3,29.6,29.81,North,351,3.0,10.0,68,0.00,,---,0.00,VWS V14.01,2013-03-03 06:50:00,
2013-03-03 01:55:00,39.3,30.0,29.81,North,351,4.0,7.0,69,0.00,,---,0.00,VWS V14.01,2013-03-03 06:55:00,
2013-03-03 02:00:00,39.3,30.0,29.81,North,355,4.0,7.0,69,0.00,,---,0.00,VWS V14.01,2013-03-03 07:00:00,
2013-03-03 02:05:00,39.2,29.9,29.81,North,355,4.0,6.0,69,0.00,,---,0.00,VWS V14.01,2013-03-03 07:05:00,
2013-03-03 02:10:00,39.1,29.8,29.81,North,355,3.0,7.0,69,0.00,,---,0.00,VWS V14.01,2013-03-03 07:10:00,
2013-03-03 02:15:00,39.0,29.7,29.81,North,355,6.0,7.0,69,0.00,,---,0.00,VWS V14.01,2013-03-03 07:15:00,
2013-03-03 02:20:00,38.9,29.6,29.81,NNW,346,8.0,10.0,69,0.00,,---,0.00,VWS V14.01,2013-03-03 07:20:00,
2013-03-03 02:25:00,38.8,29.2,29.81,NNW,346,4.0,7.0,68,0.00,,---,0.00,VWS V14.01,2013-03-03 07:25:00,
2013-03-03 02:30:00,38.8,29.2,29.81,NNW,346,7.0,9.0,68,0.00,,---,0.00,VWS V14.01,2013-03-03 07:30:00,
2013-03-03 02:35:00,38.7,29.1,29.81,North,350,6.0,9.0,68,0.00,,---,0.00,VWS V14.01,2013-03-03 07:35:00,
2013-03-03 02:40:00,38.7,29.4,29.81,North,350,5.0,7.0,69,0.00,,---,0.00,VWS V14.01,2013-03-03 07:40:00,
2013-03-03 02:45:00,38.6,29.0,29.81,North,355,3.0,7.0,68,0.00,,---,0.00,VWS V14.01,2013-03-03 07:45:00,
2013-03-03 02:50:00,38.5,28.9,29.81,North,351,6.0,9.0,68,0.00,,---,0.00,VWS V14.01,2013-03-03 07:50:00,
2013-03-03 02:55:00,38.6,29.0,29.81,North,351,6.0,7.0,68,0.00,,---,0.00,VWS V14.01,2013-03-03 07:55:00,
2013-03-03 03:00:00,38.5,28.9,29.81,North,350,6.0,6.0,68,0.00,,---,0.00,VWS V14.01,2013-03-03 08:00:00,
2013-03-03 03:05:00,38.6,29.0,29.81,NNW,348,4.0,6.0,68,0.00,,---,0.00,VWS V14.01,2013-03-03 08:05:00,
2013-03-03 03:10:00,38.6,29.0,29.81,NNW,347,5.0,7.0,68,0.00,,---,0.00,VWS V14.01,2013-03-03 08:10:00,
2013-03-03 03:15:00,38.6,29.0,29.81,NNW,346,5.0,10.0,68,0.00,,---,0.00,VWS V14.01,2013-03-03 08:15:00,
2013-03-03 03:20:00,38.6,29.0,29.81,NNW,346,6.0,9.0,68,0.00,,---,0.00,VWS V14.01,2013-03-03 08:20:00,
2013-03-03 03:25:00,38.5,28.9,29.80,NNW,344,6.0,10.0,68,0.00,,---,0.00,VWS V14.01,2013-03-03 08:25:00,
2013-03-03 03:30:00,38.4,28.8,29.80,NNW,344,5.0,10.0,68,0.00,,---,0.00,VWS V14.01,2013-03-03 08:30:00,
2013-03-03 03:35:00,38.1,28.5,29.80,NNW,344,6.0,8.0,68,0.00,,---,0.00,VWS V14.01,2013-03-03 08:35:00,
2013-03-03 03:40:00,38.1,28.8,29.80,NNW,343,3.0,6.0,69,0.00,,---,0.00,VWS V14.01,2013-03-03 08:40:00,
2013-03-03 03:45:00,38.0,28.8,29.80,NNW,342,5.0,5.0,69,0.00,,---,0.00,VWS V14.01,2013-03-03 08:45:00,
2013-03-03 03:50:00,37.6,28.4,29.80,NNW,340,4.0,8.0,69,0.00,,---,0.00,VWS V14.01,2013-03-03 08:50:00,
2013-03-03 03:55:00,37.3,28.1,29.81,NNW,329,4.0,6.0,69,0.00,,---,0.00,VWS V14.01,2013-03-03 08:55:00,
2013-03-03 04:00:00,37.0,28.1,29.81,NNW,329,4.0,5.0,70,0.00,,---,0.00,VWS V14.01,2013-03-03 09:00:00,
2013-03-03 04:05:00,36.6,27.8,29.81,NW,321,9.0,9.0,70,0.00,,---,0.00,VWS V14.01,2013-03-03 09:05:00,
2013-03-03 04:10:00,36.5,27.3,29.81,NW,323,7.0,12.0,69,0.00,,---,0.00,VWS V14.01,2013-03-03 09:10:00,
2013-03-03 04:15:00,36.4,27.2,29.81,NW,316,6.0,11.0,69,0.00,,---,0.00,VWS V14.01,2013-03-03 09:15:00,
2013-03-03 04:20:00,36.1,26.9,29.81,NNW,327,5.0,9.0,69,0.00,,---,0.00,VWS V14.01,2013-03-03 09:20:00,
2013-03-03 04:25:00,35.9,27.4,29.81,NW,322,6.0,8.0,71,0.00,,---,0.00,VWS V14.01,2013-03-03 09:25:00,
2013-03-03 04:30:00,35.7,27.6,29.81,NNW,328,4.0,9.0,72,0.00,,---,0.00,VWS V14.01,2013-03-03 09:30:00,
2013-03-03 04:35:00,35.5,27.7,29.81,NNW,333,8.0,8.0,73,0.00,,---,0.00,VWS V14.01,2013-03-03 09:35:00,
2013-03-03 04:40:00,35.3,27.5,29.82,NW,317,6.0,11.0,73,0.00,,---,0.00,VWS V14.01,2013-03-03 09:40:00,
2013-03-03 04:45:00,35.1,27.7,29.82,NW,319,6.0,10.0,74,0.00,,---,0.00,VWS V14.01,2013-03-03 09:45:00,
2013-03-03 04:50:00,35.0,27.6,29.82,NW,313,4.0,11.0,74,0.00,,---,0.00,VWS V14.01,2013-03-03 09:50:00,
2013-03-03 04:55:00,34.8,27.4,29.82,NW,318,6.0,11.0,74,0.00,,---,0.00,VWS V14.01,2013-03-03 09:55:00,
2013-03-03 05:00:00,34.6,27.2,29.82,NW,323,9.0,13.0,74,0.00,,---,0.00,VWS V14.01,2013-03-03 10:00:00,
2013-03-03 05:05:00,34.6,27.2,29.82,NW,317,6.0,7.0,74,0.00,,---,0.00,VWS V14.01,2013-03-03 10:05:00,
2013-03-03 05:10:00,34.5,26.8,29.82,NW,319,12.0,12.0,73,0.00,,---,0.00,VWS V14.01,2013-03-03 10:10:00,
2013-03-03 05:15:00,34.5,26.8,29.82,NW,309,9.0,11.0,73,0.00,,---,0.00,VWS V14.01,2013-03-03 10:15:00,
2013-03-03 05:20:00,34.4,26.7,29.82,NW,317,4.0,6.0,73,0.00,,---,0.00,VWS V14.01,2013-03-03 10:20:00,
2013-03-03 05:25:00,34.3,26.6,29.82,NW,306,2.0,10.0,73,0.00,,---,0.00,VWS V14.01,2013-03-03 10:25:00,
2013-03-03 05:30:00,34.3,26.6,29.82,NW,313,6.0,9.0,73,0.00,,---,0.00,VWS V14.01,2013-03-03 10:30:00,
2013-03-03 05:35:00,34.3,26.6,29.82,NW,321,5.0,12.0,73,0.00,,---,0.00,VWS V14.01,2013-03-03 10:35:00,
2013-03-03 05:40:00,34.3,26.2,29.82,NW,310,7.0,11.0,72,0.00,,---,0.00,VWS V14.01,2013-03-03 10:40:00,
2013-03-03 05:45:00,34.2,26.1,29.82,NW,325,5.0,10.0,72,0.00,,---,0.00,VWS V14.01,2013-03-03 10:45:00,
2013-03-03 05:50:00,34.2,26.1,29.82,NW,317,4.0,10.0,72,0.00,,---,0.00,VWS V14.01,2013-03-03 10:50:00,
2013-03-03 05:55:00,34.1,26.0,29.83,NW,309,6.0,10.0,72,0.00,,---,0.00,VWS V14.01,2013-03-03 10:55:00,
2013-03-03 06:00:00,34.0,25.6,29.83,NW,307,3.0,7.0,71,0.00,,---,0.00,VWS V14.01,2013-03-03 11:00:00,
2013-03-03 06:05:00,33.9,25.8,29.83,NW,310,2.0,9.0,72,0.00,,---,0.00,VWS V14.01,2013-03-03 11:05:00,
2013-03-03 06:10:00,33.8,25.4,29.83,NW,311,6.0,12.0,71,0.00,,---,0.00,VWS V14.01,2013-03-03 11:10:00,
2013-03-03 06:15:00,33.7,25.3,29.83,NW,309,4.0,9.0,71,0.00,,---,0.00,VWS V14.01,2013-03-03 11:15:00,
2013-03-03 06:20:00,33.7,25.3,29.83,WNW,298,4.0,6.0,71,0.00,,---,0.00,VWS V14.01,2013-03-03 11:20:00,
2013-03-03 06:25:00,33.6,25.2,29.83,WNW,302,6.0,7.0,71,0.00,,---,0.00,VWS V14.01,2013-03-03 11:25:00,
2013-03-03 06:30:00,33.5,25.1,29.83,NW,307,4.0,7.0,71,0.00,,---,0.00,VWS V14.01,2013-03-03 11:30:00,
2013-03-03 06:35:00,33.5,25.1,29.83,NW,306,3.0,7.0,71,0.00,,---,0.00,VWS V14.01,2013-03-03 11:35:00,
2013-03-03 06:40:00,33.5,25.1,29.83,NW,310,3.0,10.0,71,0.00,,---,0.00,VWS V14.01,2013-03-03 11:40:00,
2013-03-03 06:45:00,33.5,25.1,29.83,NW,311,5.0,8.0,71,0.00,,---,0.00,VWS V14.01,2013-03-03 11:45:00,
2013-03-03 06:50:00,33.5,25.1,29.83,WNW,302,3.0,7.0,71,0.00,,---,0.00,VWS V14.01,2013-03-03 11:50:00,
2013-03-03 06:55:00,33.5,25.1,29.84,NW,309,4.0,6.0,71,0.00,,---,0.00,VWS V14.01,2013-03-03 11:55:00,
2013-03-03 07:00:00,33.6,25.5,29.84,NW,317,0.0,9.0,72,0.00,,---,0.00,VWS V14.01,2013-03-03 12:00:00,
2013-03-03 07:05:00,33.6,25.2,29.84,NW,324,4.0,8.0,71,0.00,,---,0.00,VWS V14.01,2013-03-03 12:05:00,
2013-03-03 07:10:00,33.6,25.2,29.84,NW,313,5.0,12.0,71,0.00,,---,0.00,VWS V14.01,2013-03-03 12:10:00,
2013-03-03 07:15:00,33.7,25.3,29.84,NW,315,2.0,7.0,71,0.00,,---,0.00,VWS V14.01,2013-03-03 12:15:00,
2013-03-03 07:20:00,33.7,25.3,29.84,NNW,328,2.0,10.0,71,0.00,,---,0.00,VWS V14.01,2013-03-03 12:20:00,
2013-03-03 07:25:00,33.9,25.5,29.84,NW,325,2.0,9.0,71,0.00,,---,0.00,VWS V14.01,2013-03-03 12:25:00,
2013-03-03 07:30:00,34.0,25.6,29.84,NNW,341,6.0,13.0,71,0.00,,---,0.00,VWS V14.01,2013-03-03 12:30:00,
2013-03-03 07:35:00,34.3,25.9,29.84,NNW,336,9.0,12.0,71,0.00,,---,0.00,VWS V14.01,2013-03-03 12:35:00,
2013-03-03 07:40:00,34.4,25.6,29.84,NW,324,2.0,11.0,70,0.00,,---,0.00,VWS V14.01,2013-03-03 12:40:00,
2013-03-03 07:45:00,34.5,25.7,29.84,NNW,336,3.0,10.0,70,0.00,,---,0.00,VWS V14.01,2013-03-03 12:45:00,
2013-03-03 07:50:00,34.6,25.8,29.84,NW,321,3.0,10.0,70,0.00,,---,0.00,VWS V14.01,2013-03-03 12:50:00,
2013-03-03 07:55:00,34.6,25.8,29.85,NW,323,7.0,10.0,70,0.00,,---,0.00,VWS V14.01,2013-03-03 12:55:00,
2013-03-03 08:00:00,35.0,26.2,29.85,NNW,333,4.0,9.0,70,0.00,,---,0.00,VWS V14.01,2013-03-03 13:00:00,
2013-03-03 08:05:00,35.3,26.9,29.85,NNW,348,9.0,13.0,71,0.00,,---,0.00,VWS V14.01,2013-03-03 13:05:00,
2013-03-03 08:10:00,35.7,26.9,29.85,NNW,336,11.0,13.0,70,0.00,,---,0.00,VWS V14.01,2013-03-03 13:10:00,
2013-03-03 08:15:00,35.7,26.9,29.85,NNW,340,4.0,10.0,70,0.00,,---,0.00,VWS V14.01,2013-03-03 13:15:00,
2013-03-03 08:20:00,36.0,26.8,29.85,NNW,337,7.0,14.0,69,0.00,,---,0.00,VWS V14.01,2013-03-03 13:20:00,
2013-03-03 08:25:00,36.1,27.3,29.85,NNW,340,10.0,13.0,70,0.00,,---,0.00,VWS V14.01,2013-03-03 13:25:00,
2013-03-03 08:30:00,36.3,27.5,29.85,NNW,347,11.0,12.0,70,0.00,,---,0.00,VWS V14.01,2013-03-03 13:30:00,
2013-03-03 08:35:00,36.5,27.3,29.85,NNW,341,5.0,14.0,69,0.00,,---,0.00,VWS V14.01,2013-03-03 13:35:00,
2013-03-03 08:40:00,36.6,27.4,29.85,NNW,341,5.0,11.0,69,0.00,,---,0.00,VWS V14.01,2013-03-03 13:40:00,
2013-03-03 08:45:00,37.0,28.1,29.85,NNW,340,9.0,11.0,70,0.00,,---,0.00,VWS V14.01,2013-03-03 13:45:00,
2013-03-03 08:50:00,37.2,28.3,29.85,North,355,14.0,16.0,70,0.00,,---,0.00,VWS V14.01,2013-03-03 13:50:00,
2013-03-03 08:55:00,37.8,28.2,29.85,NNW,345,6.0,11.0,68,0.00,,---,0.00,VWS V14.01,2013-03-03 13:55:00,
2013-03-03 09:00:00,37.9,27.9,29.85,NNW,339,5.0,13.0,67,0.00,,---,0.00,VWS V14.01,2013-03-03 14:00:00,
2013-03-03 09:05:00,38.0,28.0,29.85,North,355,4.0,11.0,67,0.00,,---,0.00,VWS V14.01,2013-03-03 14:05:00,
2013-03-03 09:10:00,38.5,28.5,29.85,North,355,6.0,13.0,67,0.00,,---,0.00,VWS V14.01,2013-03-03 14:10:00,
2013-03-03 09:15:00,39.0,28.2,29.85,NNW,338,6.0,12.0,65,0.00,,---,0.00,VWS V14.01,2013-03-03 14:15:00,
2013-03-03 09:20:00,39.6,28.8,29.85,NNW,346,3.0,9.0,65,0.00,,---,0.00,VWS V14.01,2013-03-03 14:20:00,
2013-03-03 09:25:00,39.7,28.5,29.85,North,350,4.0,9.0,64,0.00,,---,0.00,VWS V14.01,2013-03-03 14:25:00,
2013-03-03 09:30:00,40.2,28.2,29.85,North,355,9.0,9.0,62,0.00,,---,0.00,VWS V14.01,2013-03-03 14:30:00,
2013-03-03 09:35:00,40.3,27.9,29.85,North,355,12.0,12.0,61,0.00,,---,0.00,VWS V14.01,2013-03-03 14:35:00,
2013-03-03 09:40:00,40.5,28.1,29.85,North,355,5.0,9.0,61,0.00,,---,0.00,VWS V14.01,2013-03-03 14:40:00,
2013-03-03 09:45:00,41.0,28.2,29.85,North,355,6.0,10.0,60,0.00,,---,0.00,VWS V14.01,2013-03-03 14:45:00,
2013-03-03 09:50:00,41.1,27.9,29.85,North,355,9.0,9.0,59,0.00,,---,0.00,VWS V14.01,2013-03-03 14:50:00,
2013-03-03 09:55:00,41.3,28.1,29.85,North,355,6.0,11.0,59,0.00,,---,0.00,VWS V14.01,2013-03-03 14:55:00,
2013-03-03 10:00:00,41.4,27.3,29.85,NNW,344,7.0,12.0,57,0.00,,---,0.00,VWS V14.01,2013-03-03 15:00:00,
2013-03-03 10:05:00,41.2,27.6,29.85,NNW,340,5.0,9.0,58,0.00,,---,0.00,VWS V14.01,2013-03-03 15:05:00,
2013-03-03 10:10:00,41.6,27.9,29.85,North,360,6.0,11.0,58,0.00,,---,0.00,VWS V14.01,2013-03-03 15:10:00,
2013-03-03 10:15:00,41.9,27.4,29.85,North,360,0.0,6.0,56,0.00,,---,0.00,VWS V14.01,2013-03-03 15:15:00,
2013-03-03 10:20:00,42.3,27.3,29.85,North,5,11.0,11.0,55,0.00,,---,0.00,VWS V14.01,2013-03-03 15:20:00,
2013-03-03 10:25:00,42.2,27.2,29.84,NNW,348,4.0,6.0,55,0.00,,---,0.00,VWS V14.01,2013-03-03 15:25:00,
2013-03-03 10:30:00,42.3,27.3,29.84,North,5,5.0,10.0,55,0.00,,---,0.00,VWS V14.01,2013-03-03 15:30:00,
2013-03-03 10:35:00,42.4,27.0,29.84,North,10,0.0,6.0,54,0.00,,---,0.00,VWS V14.01,2013-03-03 15:35:00,
2013-03-03 10:40:00,42.3,26.9,29.84,NNW,339,7.0,10.0,54,0.00,,---,0.00,VWS V14.01,2013-03-03 15:40:00,
2013-03-03 10:45:00,41.9,26.0,29.84,NNW,341,4.0,10.0,53,0.00,,---,0.00,VWS V14.01,2013-03-03 15:45:00,
2013-03-03 10:50:00,41.6,26.6,29.84,NNW,344,3.0,6.0,55,0.00,,---,0.00,VWS V14.01,2013-03-03 15:50:00,
2013-03-03 10:55:00,42.0,25.7,29.84,NNW,341,5.0,10.0,52,0.00,,---,0.00,VWS V14.01,2013-03-03 15:55:00,
2013-03-03 11:00:00,41.9,25.1,29.84,NW,326,4.0,6.0,51,0.00,,---,0.00,VWS V14.01,2013-03-03 16:00:00,
2013-03-03 11:05:00,42.2,26.3,29.84,NNW,339,0.0,7.0,53,0.00,,---,0.00,VWS V14.01,2013-03-03 16:05:00,
2013-03-03 11:10:00,42.8,26.4,29.84,NNW,347,3.0,6.0,52,0.00,,---,0.00,VWS V14.01,2013-03-03 16:10:00,
2013-03-03 11:15:00,43.6,26.2,29.84,NNW,341,2.0,7.0,50,0.00,,---,0.00,VWS V14.01,2013-03-03 16:15:00,
2013-03-03 11:20:00,43.4,25.5,29.84,North,350,6.0,9.0,49,0.00,,---,0.00,VWS V14.01,2013-03-03 16:20:00,
2013-03-03 11:25:00,43.6,26.2,29.84,North,350,4.0,9.0,50,0.00,,---,0.00,VWS V14.01,2013-03-03 16:25:00,
2013-03-03 11:30:00,42.9,25.1,29.84,NNW,345,4.0,6.0,49,0.00,,---,0.00,VWS V14.01,2013-03-03 16:30:00,
2013-03-03 11:35:00,42.9,25.1,29.84,NNW,332,11.0,11.0,49,0.00,,---,0.00,VWS V14.01,2013-03-03 16:35:00,
2013-03-03 11:40:00,42.9,25.1,29.83,WNW,298,3.0,10.0,49,0.00,,---,0.00,VWS V14.01,2013-03-03 16:40:00,
2013-03-03 11:45:00,42.9,25.1,29.83,NNW,344,4.0,10.0,49,0.00,,---,0.00,VWS V14.01,2013-03-03 16:45:00,
2013-03-03 11:50:00,42.8,24.5,29.83,North,349,6.0,10.0,48,0.00,,---,0.00,VWS V14.01,2013-03-03 16:50:00,
2013-03-03 11:55:00,42.8,25.0,29.82,NW,324,6.0,7.0,49,0.00,,---,0.00,VWS V14.01,2013-03-03 16:55:00,
2013-03-03 12:00:00,43.2,25.4,29.82,NNW,332,7.0,8.0,49,0.00,,---,0.00,VWS V14.01,2013-03-03 17:00:00,
2013-03-03 12:05:00,43.3,25.4,29.82,NNW,344,7.0,12.0,49,0.00,,---,0.00,VWS V14.01,2013-03-03 17:05:00,
2013-03-03 12:10:00,43.2,25.4,29.82,NNW,330,6.0,8.0,49,0.00,,---,0.00,VWS V14.01,2013-03-03 17:10:00,
2013-03-03 12:15:00,43.6,25.2,29.82,NNW,333,3.0,6.0,48,0.00,,---,0.00,VWS V14.01,2013-03-03 17:15:00,
2013-03-03 12:20:00,43.9,25.5,29.82,WNW,302,4.0,5.0,48,0.00,,---,0.00,VWS V14.01,2013-03-03 17:20:00,
2013-03-03 12:25:00,43.9,25.5,29.81,West,279,10.0,11.0,48,0.00,,---,0.00,VWS V14.01,2013-03-03 17:25:00,
2013-03-03 12:30:00,43.2,23.8,29.81,West,281,5.0,9.0,46,0.00,,---,0.00,VWS V14.01,2013-03-03 17:30:00,
2013-03-03 12:35:00,43.6,25.2,29.81,WNW,288,6.0,7.0,48,0.00,,---,0.00,VWS V14.01,2013-03-03 17:35:00,
2013-03-03 12:40:00,44.0,24.6,29.81,WNW,294,6.0,7.0,46,0.00,,---,0.00,VWS V14.01,2013-03-03 17:40:00,
2013-03-03 12:45:00,44.9,25.4,29.81,NW,321,5.0,9.0,46,0.00,,---,0.00,VWS V14.01,2013-03-03 17:45:00,
2013-03-03 12:50:00,44.8,24.8,29.81,NW,325,7.0,10.0,45,0.00,,---,0.00,VWS V14.01,2013-03-03 17:50:00,
2013-03-03 12:55:00,45.0,24.4,29.80,WNW,298,9.0,9.0,44,0.00,,---,0.00,VWS V14.01,2013-03-03 17:55:00,
2013-03-03 13:00:00,45.5,24.9,29.80,WNW,300,6.0,11.0,44,0.00,,---,0.00,VWS V14.01,2013-03-03 18:00:00,
2013-03-03 13:05:00,45.6,25.5,29.80,NNW,336,7.0,9.0,45,0.00,,---,0.00,VWS V14.01,2013-03-03 18:05:00,
2013-03-03 13:10:00,45.4,25.3,29.79,NNW,344,8.0,9.0,45,0.00,,---,0.00,VWS V14.01,2013-03-03 18:10:00,
2013-03-03 13:15:00,46.2,26.0,29.79,North,355,5.0,7.0,45,0.00,,---,0.00,VWS V14.01,2013-03-03 18:15:00,
2013-03-03 13:20:00,46.2,25.0,29.79,North,350,4.0,7.0,43,0.00,,---,0.00,VWS V14.01,2013-03-03 18:20:00,
2013-03-03 13:25:00,46.2,25.5,29.79,NNW,346,5.0,9.0,44,0.00,,---,0.00,VWS V14.01,2013-03-03 18:25:00,
2013-03-03 13:30:00,46.1,26.0,29.79,NNW,348,6.0,11.0,45,0.00,,---,0.00,VWS V14.01,2013-03-03 18:30:00,
2013-03-03 13:35:00,46.0,24.2,29.79,NNW,348,0.0,4.0,42,0.00,,---,0.00,VWS V14.01,2013-03-03 18:35:00,
2013-03-03 13:40:00,45.4,24.2,29.78,NNW,331,12.0,16.0,43,0.00,,---,0.00,VWS V14.01,2013-03-03 18:40:00,
2013-03-03 13:45:00,45.4,24.2,29.78,NW,307,5.0,8.0,43,0.00,,---,0.00,VWS V14.01,2013-03-03 18:45:00,
2013-03-03 13:50:00,45.2,24.0,29.78,WNW,300,4.0,9.0,43,0.00,,---,0.00,VWS V14.01,2013-03-03 18:50:00,
2013-03-03 13:55:00,45.4,24.8,29.78,WNW,292,8.0,10.0,44,0.00,,---,0.00,VWS V14.01,2013-03-03 18:55:00,
2013-03-03 14:00:00,46.4,25.1,29.78,North,350,5.0,12.0,43,0.00,,---,0.00,VWS V14.01,2013-03-03 19:00:00,
2013-03-03 14:05:00,46.8,25.5,29.78,NW,315,5.0,15.0,43,0.00,,---,0.00,VWS V14.01,2013-03-03 19:05:00,
2013-03-03 14:10:00,46.1,24.9,29.78,North,349,9.0,12.0,43,0.00,,---,0.00,VWS V14.01,2013-03-03 19:10:00,
2013-03-03 14:15:00,46.0,24.8,29.78,NW,317,4.0,7.0,43,0.00,,---,0.00,VWS V14.01,2013-03-03 19:15:00,
2013-03-03 14:20:00,46.1,24.9,29.78,NNW,342,6.0,6.0,43,0.00,,---,0.00,VWS V14.01,2013-03-03 19:20:00,
2013-03-03 14:25:00,46.2,25.0,29.78,NNW,338,4.0,10.0,43,0.00,,---,0.00,VWS V14.01,2013-03-03 19:25:00,
2013-03-03 14:30:00,46.4,25.7,29.78,North,355,8.0,10.0,44,0.00,,---,0.00,VWS V14.01,2013-03-03 19:30:00,
2013-03-03 14:35:00,46.4,25.1,29.78,WNW,296,10.0,10.0,43,0.00,,---,0.00,VWS V14.01,2013-03-03 19:35:00,
2013-03-03 14:40:00,46.1,24.9,29.78,NNW,333,6.0,9.0,43,0.00,,---,0.00,VWS V14.01,2013-03-03 19:40:00,
2013-03-03 14:45:00,46.0,24.8,29.78,WNW,292,0.0,0.0,43,0.00,,---,0.00,VWS V14.01,2013-03-03 19:45:00,
2013-03-03 14:50:00,46.5,26.9,29.78,NNW,335,10.0,18.0,46,0.00,,---,0.00,VWS V14.01,2013-03-03 19:50:00,
2013-03-03 14:55:00,46.0,25.9,29.78,NNW,348,6.0,11.0,45,0.00,,---,0.00,VWS V14.01,2013-03-03 19:55:00,
2013-03-03 15:00:00,46.1,25.4,29.78,NNW,342,10.0,14.0,44,0.00,,---,0.00,VWS V14.01,2013-03-03 20:00:00,
2013-03-03 15:05:00,46.0,24.8,29.78,NNW,329,0.0,5.0,43,0.00,,---,0.00,VWS V14.01,2013-03-03 20:05:00,
2013-03-03 15:10:00,46.3,25.6,29.78,NW,309,4.0,8.0,44,0.00,,---,0.00,VWS V14.01,2013-03-03 20:10:00,
2013-03-03 15:15:00,46.2,25.0,29.78,WNW,293,12.0,12.0,43,0.00,,---,0.00,VWS V14.01,2013-03-03 20:15:00,
2013-03-03 15:20:00,46.0,24.8,29.78,NW,315,4.0,11.0,43,0.00,,---,0.00,VWS V14.01,2013-03-03 20:20:00,
2013-03-03 15:25:00,46.1,25.4,29.78,North,355,8.0,13.0,44,0.00,,---,0.00,VWS V14.01,2013-03-03 20:25:00,
2013-03-03 15:30:00,46.5,25.8,29.78,North,355,5.0,11.0,44,0.00,,---,0.00,VWS V14.01,2013-03-03 20:30:00,
2013-03-03 15:35:00,46.6,25.9,29.78,NNW,342,12.0,13.0,44,0.00,,---,0.00,VWS V14.01,2013-03-03 20:35:00,
2013-03-03 15:40:00,46.7,25.4,29.78,NNW,344,8.0,13.0,43,0.00,,---,0.00,VWS V14.01,2013-03-03 20:40:00,
2013-03-03 15:45:00,46.5,25.2,29.78,WNW,283,12.0,14.0,43,0.00,,---,0.00,VWS V14.01,2013-03-03 20:45:00,
2013-03-03 15:50:00,46.0,24.2,29.78,NW,313,4.0,6.0,42,0.00,,---,0.00,VWS V14.01,2013-03-03 20:50:00,
2013-03-03 15:55:00,46.5,25.2,29.78,NNW,327,6.0,11.0,43,0.00,,---,0.00,VWS V14.01,2013-03-03 20:55:00,
2013-03-03 16:00:00,46.7,26.0,29.78,NNW,338,6.0,11.0,44,0.00,,---,0.00,VWS V14.01,2013-03-03 21:00:00,
2013-03-03 16:05:00,46.4,25.7,29.78,NNW,342,6.0,7.0,44,0.00,,---,0.00,VWS V14.01,2013-03-03 21:05:00,
2013-03-03 16:10:00,46.6,26.4,29.78,NNW,339,5.0,10.0,45,0.00,,---,0.00,VWS V14.01,2013-03-03 21:10:00,
2013-03-03 16:15:00,46.4,25.7,29.78,NNW,344,7.0,7.0,44,0.00,,---,0.00,VWS V14.01,2013-03-03 21:15:00,
2013-03-03 16:20:00,46.2,25.5,29.78,NNW,343,4.0,11.0,44,0.00,,---,0.00,VWS V14.01,2013-03-03 21:20:00,
2013-03-03 16:25:00,46.5,26.3,29.79,NNW,347,7.0,7.0,45,0.00,,---,0.00,VWS V14.01,2013-03-03 21:25:00,
2013-03-03 16:30:00,46.3,25.6,29.79,NNW,343,9.0,14.0,44,0.00,,---,0.00,VWS V14.01,2013-03-03 21:30:00,
2013-03-03 16:35:00,46.1,24.9,29.79,NW,313,3.0,13.0,43,0.00,,---,0.00,VWS V14.01,2013-03-03 21:35:00,
2013-03-03 16:40:00,46.0,25.3,29.79,WNW,302,9.0,12.0,44,0.00,,---,0.00,VWS V14.01,2013-03-03 21:40:00,
2013-03-03 16:45:00,45.8,24.6,29.79,WNW,292,6.0,11.0,43,0.00,,---,0.00,VWS V14.01,2013-03-03 21:45:00,
2013-03-03 16:50:00,45.8,24.6,29.79,West,281,4.0,9.0,43,0.00,,---,0.00,VWS V14.01,2013-03-03 21:50:00,
2013-03-03 16:55:00,45.7,24.5,29.79,NW,319,4.0,7.0,43,0.00,,---,0.00,VWS V14.01,2013-03-03 21:55:00,
2013-03-03 17:00:00,45.5,24.9,29.79,NW,317,6.0,11.0,44,0.00,,---,0.00,VWS V14.01,2013-03-03 22:00:00,
2013-03-03 17:05:00,45.4,24.8,29.79,NW,315,5.0,6.0,44,0.00,,---,0.00,VWS V14.01,2013-03-03 22:05:00,
2013-03-03 17:10:00,45.4,25.3,29.79,NW,311,4.0,9.0,45,0.00,,---,0.00,VWS V14.01,2013-03-03 22:10:00,
2013-03-03 17:15:00,45.4,25.3,29.79,NNW,334,7.0,12.0,45,0.00,,---,0.00,VWS V14.01,2013-03-03 22:15:00,
2013-03-03 17:20:00,45.2,25.7,29.79,NW,317,6.0,11.0,46,0.00,,---,0.00,VWS V14.01,2013-03-03 22:20:00,
2013-03-03 17:25:00,45.0,25.5,29.80,NW,304,3.0,11.0,46,0.00,,---,0.00,VWS V14.01,2013-03-03 22:25:00,
2013-03-03 17:30:00,44.9,24.9,29.80,NW,306,5.0,8.0,45,0.00,,---,0.00,VWS V14.01,2013-03-03 22:30:00,
2013-03-03 17:35:00,44.8,25.3,29.80,WNW,297,5.0,7.0,46,0.00,,---,0.00,VWS V14.01,2013-03-03 22:35:00,
2013-03-03 17:40:00,44.4,24.9,29.81,NW,315,5.0,10.0,46,0.00,,---,0.00,VWS V14.01,2013-03-03 22:40:00,
2013-03-03 17:56:00,44.2,25.3,29.81,NNW,327,4.0,5.0,47,0.00,,---,0.00,VWS V14.01,2013-03-03 22:56:00,
2013-03-03 18:01:00,44.0,25.6,29.81,NW,323,4.0,9.0,48,0.00,,---,0.00,VWS V14.01,2013-03-03 23:01:00,
2013-03-03 18:06:00,43.9,25.5,29.81,NW,306,3.0,12.0,48,0.00,,---,0.00,VWS V14.01,2013-03-03 23:06:00,
2013-03-03 18:11:00,43.7,25.3,29.82,NW,315,2.0,6.0,48,0.00,,---,0.00,VWS V14.01,2013-03-03 23:11:00,
2013-03-03 18:16:00,43.6,25.7,29.82,NW,319,4.0,5.0,49,0.00,,---,0.00,VWS V14.01,2013-03-03 23:16:00,
2013-03-03 18:21:00,43.5,26.1,29.82,NW,319,0.0,6.0,50,0.00,,---,0.00,VWS V14.01,2013-03-03 23:21:00,
2013-03-03 18:26:00,43.4,26.0,29.82,NW,319,0.0,0.0,50,0.00,,---,0.00,VWS V14.01,2013-03-03 23:26:00,
2013-03-03 18:31:00,43.2,25.8,29.82,NW,319,0.0,0.0,50,0.00,,---,0.00,VWS V14.01,2013-03-03 23:31:00,
2013-03-03 18:36:00,43.1,25.7,29.82,NW,318,0.0,4.0,50,0.00,,---,0.00,VWS V14.01,2013-03-03 23:36:00,
2013-03-03 18:41:00,43.0,26.1,29.83,NW,318,3.0,4.0,51,0.00,,---,0.00,VWS V14.01,2013-03-03 23:41:00,
2013-03-03 18:46:00,42.9,25.6,29.83,NW,317,3.0,6.0,50,0.00,,---,0.00,VWS V14.01,2013-03-03 23:46:00,
2013-03-03 18:51:00,42.9,26.0,29.83,NW,317,4.0,4.0,51,0.00,,---,0.00,VWS V14.01,2013-03-03 23:51:00,
2013-03-03 18:56:00,42.7,25.9,29.84,NW,317,2.0,3.0,51,0.00,,---,0.00,VWS V14.01,2013-03-03 23:56:00,
2013-03-03 19:01:00,42.7,25.9,29.84,NW,317,1.0,3.0,51,0.00,,---,0.00,VWS V14.01,2013-03-04 00:01:00,
2013-03-03 19:06:00,42.6,26.2,29.84,NW,317,0.0,0.0,52,0.00,,---,0.00,VWS V14.01,2013-03-04 00:06:00,
2013-03-03 19:11:00,42.5,26.6,29.84,NW,317,0.0,0.0,53,0.00,,---,0.00,VWS V14.01,2013-03-04 00:11:00,
2013-03-03 19:16:00,42.4,26.5,29.84,NW,317,2.0,4.0,53,0.00,,---,0.00,VWS V14.01,2013-03-04 00:16:00,
2013-03-03 19:21:00,42.3,26.4,29.84,NW,317,0.0,0.0,53,0.00,,---,0.00,VWS V14.01,2013-03-04 00:21:00,
2013-03-03 19:26:00,42.2,26.3,29.85,NW,317,1.0,3.0,53,0.00,,---,0.00,VWS V14.01,2013-03-04 00:26:00,
2013-03-03 19:31:00,42.3,26.4,29.85,NW,317,3.0,5.0,53,0.00,,---,0.00,VWS V14.01,2013-03-04 00:31:00,
2013-03-03 19:36:00,42.3,26.9,29.85,NW,317,0.0,0.0,54,0.00,,---,0.00,VWS V14.01,2013-03-04 00:36:00,
2013-03-03 19:41:00,42.2,26.8,29.85,NW,317,0.0,0.0,54,0.00,,---,0.00,VWS V14.01,2013-03-04 00:41:00,
2013-03-03 19:46:00,42.1,27.1,29.85,NW,317,0.0,0.0,55,0.00,,---,0.00,VWS V14.01,2013-03-04 00:46:00,
2013-03-03 19:51:00,42.0,27.0,29.85,NW,317,0.0,0.0,55,0.00,,---,0.00,VWS V14.01,2013-03-04 00:51:00,
2013-03-03 19:56:00,41.9,26.9,29.85,NW,317,0.0,4.0,55,0.00,,---,0.00,VWS V14.01,2013-03-04 00:56:00,
2013-03-03 20:01:00,41.9,26.9,29.85,NW,317,0.0,0.0,55,0.00,,---,0.00,VWS V14.01,2013-03-04 01:01:00,
2013-03-03 20:06:00,41.7,26.7,29.85,NW,317,0.0,0.0,55,0.00,,---,0.00,VWS V14.01,2013-03-04 01:06:00,
2013-03-03 20:11:00,41.7,26.7,29.85,NW,317,0.0,0.0,55,0.00,,---,0.00,VWS V14.01,2013-03-04 01:11:00,
2013-03-03 20:16:00,41.7,26.7,29.85,NW,317,0.0,0.0,55,0.00,,---,0.00,VWS V14.01,2013-03-04 01:16:00,
2013-03-03 20:21:00,41.6,27.1,29.85,NW,317,0.0,0.0,56,0.00,,---,0.00,VWS V14.01,2013-03-04 01:21:00,
2013-03-03 20:26:00,41.6,27.5,29.86,NW,317,0.0,0.0,57,0.00,,---,0.00,VWS V14.01,2013-03-04 01:26:00,
2013-03-03 20:31:00,41.7,27.6,29.86,NW,317,0.0,0.0,57,0.00,,---,0.00,VWS V14.01,2013-03-04 01:31:00,
2013-03-03 20:36:00,41.8,28.1,29.86,NW,317,0.0,0.0,58,0.00,,---,0.00,VWS V14.01,2013-03-04 01:36:00,
2013-03-03 20:40:00,41.7,28.0,29.86,NW,317,0.0,0.0,58,0.00,,---,0.00,VWS V14.01,2013-03-04 01:40:00,
2013-03-03 20:46:00,41.6,27.9,29.86,NW,317,0.0,0.0,58,0.00,,---,0.00,VWS V14.01,2013-03-04 01:46:00,
2013-03-03 20:51:00,41.5,27.8,29.86,NW,317,0.0,0.0,58,0.00,,---,0.00,VWS V14.01,2013-03-04 01:51:00,
2013-03-03 20:56:00,41.7,28.0,29.87,NW,317,0.0,0.0,58,0.00,,---,0.00,VWS V14.01,2013-03-04 01:56:00,
2013-03-03 21:01:00,41.9,27.8,29.87,NW,317,0.0,0.0,57,0.00,,---,0.00,VWS V14.01,2013-03-04 02:01:00,
2013-03-03 21:06:00,42.1,28.0,29.87,NW,317,0.0,0.0,57,0.00,,---,0.00,VWS V14.01,2013-03-04 02:06:00,
2013-03-03 21:11:00,42.0,27.9,29.87,NW,317,0.0,0.0,57,0.00,,---,0.00,VWS V14.01,2013-03-04 02:11:00,
2013-03-03 21:16:00,41.9,27.4,29.87,NW,317,0.0,0.0,56,0.00,,---,0.00,VWS V14.01,2013-03-04 02:16:00,
2013-03-03 21:21:00,41.7,27.2,29.87,NW,317,0.0,0.0,56,0.00,,---,0.00,VWS V14.01,2013-03-04 02:21:00,
2013-03-03 21:26:00,41.6,27.1,29.87,NW,317,0.0,0.0,56,0.00,,---,0.00,VWS V14.01,2013-03-04 02:26:00,
2013-03-03 21:31:00,41.6,27.1,29.87,NW,317,0.0,0.0,56,0.00,,---,0.00,VWS V14.01,2013-03-04 02:31:00,
2013-03-03 21:36:00,41.6,26.6,29.87,NW,317,0.0,0.0,55,0.00,,---,0.00,VWS V14.01,2013-03-04 02:36:00,
2013-03-03 21:41:00,41.6,26.6,29.88,NW,317,0.0,0.0,55,0.00,,---,0.00,VWS V14.01,2013-03-04 02:41:00,
2013-03-03 21:46:00,41.7,26.7,29.88,NW,317,0.0,0.0,55,0.00,,---,0.00,VWS V14.01,2013-03-04 02:46:00,
2013-03-03 21:51:00,41.7,26.3,29.88,NW,317,0.0,0.0,54,0.00,,---,0.00,VWS V14.01,2013-03-04 02:51:00,
2013-03-03 21:56:00,41.8,26.8,29.87,NW,312,4.0,6.0,55,0.00,,---,0.00,VWS V14.01,2013-03-04 02:56:00,
2013-03-03 22:01:00,41.8,26.8,29.87,NW,304,3.0,5.0,55,0.00,,---,0.00,VWS V14.01,2013-03-04 03:01:00,
2013-03-03 22:06:00,41.8,26.8,29.87,WNW,303,4.0,4.0,55,0.00,,---,0.00,VWS V14.01,2013-03-04 03:06:00,
2013-03-03 22:11:00,41.8,26.8,29.87,WNW,302,3.0,6.0,55,0.00,,---,0.00,VWS V14.01,2013-03-04 03:11:00,
2013-03-03 22:15:00,41.8,26.8,29.87,WNW,298,5.0,6.0,55,0.00,,---,0.00,VWS V14.01,2013-03-04 03:15:00,
2013-03-03 22:20:00,41.9,26.5,29.87,WNW,294,4.0,7.0,54,0.00,,---,0.00,VWS V14.01,2013-03-04 03:20:00,
2013-03-03 22:25:00,42.0,27.0,29.87,WNW,292,3.0,6.0,55,0.00,,---,0.00,VWS V14.01,2013-03-04 03:25:00,
2013-03-03 22:30:00,41.9,27.4,29.87,WNW,292,3.0,6.0,56,0.00,,---,0.00,VWS V14.01,2013-03-04 03:30:00,
2013-03-03 22:35:00,41.9,27.4,29.87,WNW,292,4.0,6.0,56,0.00,,---,0.00,VWS V14.01,2013-03-04 03:35:00,
2013-03-03 22:40:00,41.8,27.7,29.87,WNW,291,4.0,6.0,57,0.00,,---,0.00,VWS V14.01,2013-03-04 03:40:00,
2013-03-03 22:45:00,41.8,27.7,29.87,WNW,289,5.0,9.0,57,0.00,,---,0.00,VWS V14.01,2013-03-04 03:45:00,
2013-03-03 22:50:00,41.9,27.8,29.87,WNW,288,7.0,7.0,57,0.00,,---,0.00,VWS V14.01,2013-03-04 03:50:00,
2013-03-03 22:55:00,41.9,27.8,29.87,WNW,286,6.0,8.0,57,0.00,,---,0.00,VWS V14.01,2013-03-04 03:55:00,
2013-03-03 23:00:00,42.0,27.0,29.87,WNW,288,3.0,11.0,55,0.00,,---,0.00,VWS V14.01,2013-03-04 04:00:00,
2013-03-03 23:05:00,42.3,26.4,29.87,WNW,303,17.0,17.0,53,0.00,,---,0.00,VWS V14.01,2013-03-04 04:05:00,
2013-03-03 23:10:00,41.9,25.6,29.87,WNW,288,13.0,13.0,52,0.00,,---,0.00,VWS V14.01,2013-03-04 04:10:00,
2013-03-03 23:15:00,41.3,25.0,29.87,NW,314,5.0,16.0,52,0.00,,---,0.00,VWS V14.01,2013-03-04 04:15:00,
2013-03-03 23:20:00,40.6,25.3,29.87,NW,311,6.0,16.0,54,0.00,,---,0.00,VWS V14.01,2013-03-04 04:20:00,
2013-03-03 23:25:00,40.0,25.6,29.88,NW,314,7.0,20.0,56,0.00,,---,0.00,VWS V14.01,2013-03-04 04:25:00,
2013-03-03 23:30:00,39.6,25.6,29.88,NNW,334,12.0,15.0,57,0.00,,---,0.00,VWS V14.01,2013-03-04 04:30:00,
2013-03-03 23:35:00,39.1,25.6,29.88,NNW,333,11.0,14.0,58,0.00,,---,0.00,VWS V14.01,2013-03-04 04:35:00,
2013-03-03 23:40:00,38.7,25.6,29.88,NNW,348,10.0,16.0,59,0.00,,---,0.00,VWS V14.01,2013-03-04 04:40:00,
2013-03-03 23:45:00,38.3,26.0,29.88,NW,325,5.0,11.0,61,0.00,,---,0.00,VWS V14.01,2013-03-04 04:45:00,
2013-03-03 23:50:00,38.0,26.1,29.88,NNW,329,4.0,12.0,62,0.00,,---,0.00,VWS V14.01,2013-03-04 04:50:00,
2013-03-03 23:55:00,37.7,26.3,29.88,NNW,330,6.0,12.0,63,0.00,,---,0.00,VWS V14.01,2013-03-04 04:55:00,